Time,TemperatureF,DewpointF,PressureIn,WindDirection,WindDirectionDegrees,WindSpeedMPH,WindSpeedGustMPH,Humidity,HourlyPrecipIn,Conditions,Clouds,dailyrainin,SoftwareType,DateUTC
2013-01-06 00:01:00,45.6,40.7,30.12,West,262,0.0,0.0,83,0.00,OVC,,0.00,WeatherDisplay:10.37,2013-01-06 08:01:00,
2013-01-06 00:06:00,45.7,40.8,30.12,West,262,0.0,0.0,83,0.00,OVC,,0.00,WeatherDisplay:10.37,2013-01-06 08:06:00,
2013-01-06 00:11:00,45.7,40.8,30.13,West,263,0.0,0.0,83,0.00,OVC,,0.00,WeatherDisplay:10.37,2013-01-06 08:11:00,
2013-01-06 00:16:00,45.7,40.8,30.13,West,262,0.0,0.0,83,0.00,OVC,,0.00,WeatherDisplay:10.37,2013-01-06 08:16:00,
2013-01-06 00:21:00,45.7,40.8,30.13,West,262,0.0,0.0,83,0.00,OVC,,0.00,WeatherDisplay:10.37,2013-01-06 08:21:00,
2013-01-06 00:26:00,45.6,40.7,30.13,West,263,0.0,0.0,83,0.00,OVC,,0.00,WeatherDisplay:10.37,2013-01-06 08:26:00,
2013-01-06 00:31:00,45.7,40.8,30.13,West,263,0.0,0.0,83,0.00,OVC,,0.00,WeatherDisplay:10.37,2013-01-06 08:31:00,
2013-01-06 00:36:00,45.9,41.0,30.13,West,263,1.1,0.0,83,0.00,OVC,,0.00,WeatherDisplay:10.37,2013-01-06 08:36:00,
2013-01-06 00:41:00,46.2,41.0,30.14,West,263,0.0,0.0,82,0.00,OVC,,0.00,WeatherDisplay:10.37,2013-01-06 08:41:00,
2013-01-06 00:46:00,46.4,41.2,30.14,East,94,1.1,1.1,82,0.00,OVC,,0.00,WeatherDisplay:10.37,2013-01-06 08:46:00,
2013-01-06 00:51:00,46.7,41.2,30.14,East,94,0.0,0.0,81,0.00,OVC,,0.00,WeatherDisplay:10.37,2013-01-06 08:51:00,
2013-01-06 00:56:00,46.8,41.3,30.14,East,94,0.0,0.0,81,0.00,OVC,,0.00,WeatherDisplay:10.37,2013-01-06 08:56:00,
2013-01-06 01:01:00,46.9,41.4,30.14,East,94,0.0,0.0,81,0.00,OVC,,0.00,WeatherDisplay:10.37,2013-01-06 09:01:00,
2013-01-06 01:06:00,47.2,41.7,30.14,East,93,1.1,0.0,81,0.00,OVC,,0.00,WeatherDisplay:10.37,2013-01-06 09:06:00,
2013-01-06 01:11:00,47.5,42.0,30.14,East,98,0.0,0.0,81,0.00,OVC,,0.00,WeatherDisplay:10.37,2013-01-06 09:11:00,
2013-01-06 01:16:00,47.5,42.3,30.15,East,96,0.0,0.0,82,0.00,OVC,,0.00,WeatherDisplay:10.37,2013-01-06 09:16:00,
2013-01-06 01:21:00,47.4,42.5,30.15,NNW,333,0.0,0.0,83,0.00,OVC,,0.00,WeatherDisplay:10.37,2013-01-06 09:21:00,
2013-01-06 01:26:00,47.4,42.8,30.16,NNW,345,0.0,0.0,84,0.00,OVC,,0.00,WeatherDisplay:10.37,2013-01-06 09:26:00,
2013-01-06 01:31:00,47.3,42.7,30.16,NNW,345,0.0,0.0,84,0.00,BKN,,0.00,WeatherDisplay:10.37,2013-01-06 09:31:00,
2013-01-06 01:36:00,47.2,42.6,30.16,NNW,345,0.0,0.0,84,0.01,RA,,0.01,WeatherDisplay:10.37,2013-01-06 09:36:00,
2013-01-06 01:41:00,47.1,43.1,30.16,NNW,345,0.0,0.0,86,0.01,RA,,0.01,WeatherDisplay:10.37,2013-01-06 09:41:00,
2013-01-06 01:46:00,47.2,43.5,30.17,NNW,330,0.0,0.0,87,0.01,BKN,,0.02,WeatherDisplay:10.37,2013-01-06 09:46:00,
2013-01-06 01:51:00,47.2,44.1,30.17,NNW,330,0.0,0.0,89,0.02,RA,,0.02,WeatherDisplay:10.37,2013-01-06 09:51:00,
2013-01-06 01:56:00,47.1,44.3,30.17,South,175,0.0,0.0,90,0.03,RA,,0.03,WeatherDisplay:10.37,2013-01-06 09:56:00,
2013-01-06 02:01:00,46.9,44.4,30.17,South,175,0.0,0.0,91,0.04,RA,,0.04,WeatherDisplay:10.37,2013-01-06 10:01:00,
2013-01-06 02:06:00,46.8,44.3,30.16,South,175,0.0,0.0,91,0.04,RA,,0.04,WeatherDisplay:10.37,2013-01-06 10:06:00,
2013-01-06 02:11:00,46.6,44.4,30.16,South,175,0.0,0.0,92,0.05,RA,,0.05,WeatherDisplay:10.37,2013-01-06 10:11:00,
2013-01-06 02:16:00,46.5,44.3,30.16,South,175,0.0,0.0,92,0.06,RA,,0.06,WeatherDisplay:10.37,2013-01-06 10:16:00,
2013-01-06 02:21:00,46.4,44.2,30.16,South,174,0.0,0.0,92,0.07,RA,,0.08,WeatherDisplay:10.37,2013-01-06 10:21:00,
2013-01-06 02:26:00,46.3,44.4,30.16,South,175,0.0,0.0,93,0.10,RA,,0.10,WeatherDisplay:10.37,2013-01-06 10:26:00,
2013-01-06 02:31:00,46.3,44.4,30.16,South,174,0.0,0.0,93,0.12,RA,,0.12,WeatherDisplay:10.37,2013-01-06 10:31:00,
2013-01-06 02:36:00,46.4,44.8,30.17,West,259,1.1,0.0,94,0.12,RA,,0.13,WeatherDisplay:10.37,2013-01-06 10:36:00,
2013-01-06 02:41:00,46.5,45.1,30.17,West,262,2.3,2.3,95,0.13,RA,,0.14,WeatherDisplay:10.37,2013-01-06 10:41:00,
2013-01-06 02:46:00,46.5,45.1,30.17,West,262,0.0,0.0,95,0.15,RA,,0.16,WeatherDisplay:10.37,2013-01-06 10:46:00,
2013-01-06 02:51:00,46.5,45.1,30.16,West,262,0.0,0.0,95,0.16,RA,,0.18,WeatherDisplay:10.37,2013-01-06 10:51:00,
2013-01-06 02:56:00,46.4,45.0,30.16,East,91,2.0,2.0,95,0.16,RA,,0.19,WeatherDisplay:10.37,2013-01-06 10:56:00,
2013-01-06 03:01:00,46.4,45.0,30.15,East,91,3.5,3.5,95,0.16,RA,,0.20,WeatherDisplay:10.37,2013-01-06 11:01:00,
2013-01-06 03:06:00,46.4,45.0,30.14,ENE,77,3.0,3.0,95,0.16,RA,,0.20,WeatherDisplay:10.37,2013-01-06 11:06:00,
2013-01-06 03:11:00,46.3,44.9,30.14,ESE,122,2.3,2.3,95,0.15,OVC,,0.20,WeatherDisplay:10.37,2013-01-06 11:11:00,
2013-01-06 03:16:00,46.2,44.8,30.13,SE,135,1.1,1.1,95,0.14,OVC,,0.20,WeatherDisplay:10.37,2013-01-06 11:16:00,
2013-01-06 03:21:00,46.2,44.8,30.14,East,101,1.0,1.0,95,0.13,OVC,,0.20,WeatherDisplay:10.37,2013-01-06 11:21:00,
2013-01-06 03:26:00,46.3,44.9,30.14,ENE,77,2.0,2.0,95,0.10,OVC,,0.20,WeatherDisplay:10.37,2013-01-06 11:26:00,
2013-01-06 03:31:00,46.3,44.9,30.14,ENE,61,1.1,1.1,95,0.08,BKN,,0.20,WeatherDisplay:10.37,2013-01-06 11:31:00,
2013-01-06 03:36:00,46.3,44.9,30.14,East,89,1.1,0.0,95,0.07,BKN,,0.20,WeatherDisplay:10.37,2013-01-06 11:36:00,
2013-01-06 03:41:00,46.2,44.8,30.14,SE,137,1.1,1.1,95,0.06,BKN,,0.20,WeatherDisplay:10.37,2013-01-06 11:41:00,
2013-01-06 03:46:00,46.1,44.7,30.14,ESE,122,1.1,1.1,95,0.04,BKN,,0.20,WeatherDisplay:10.37,2013-01-06 11:46:00,
2013-01-06 03:51:00,46.1,44.5,30.14,SE,135,0.0,0.0,94,0.02,BKN,,0.20,WeatherDisplay:10.37,2013-01-06 11:51:00,
2013-01-06 03:56:00,46.1,44.5,30.14,SE,132,0.0,0.0,94,0.01,BKN,,0.20,WeatherDisplay:10.37,2013-01-06 11:56:00,
2013-01-06 04:01:00,46.0,44.4,30.14,ESE,117,1.1,1.1,94,0.00,BKN,,0.20,WeatherDisplay:10.37,2013-01-06 12:01:00,
2013-01-06 04:06:00,45.9,44.3,30.14,East,99,1.1,0.0,94,0.00,BKN,,0.20,WeatherDisplay:10.37,2013-01-06 12:06:00,
2013-01-06 04:11:00,45.7,44.1,30.14,East,99,1.1,0.0,94,0.00,BKN,,0.20,WeatherDisplay:10.37,2013-01-06 12:11:00,
2013-01-06 04:16:00,45.6,43.7,30.14,ESE,122,0.0,0.0,93,0.00,BKN,,0.20,WeatherDisplay:10.37,2013-01-06 12:16:00,
2013-01-06 04:21:00,45.4,43.5,30.14,East,98,1.1,1.1,93,0.00,BKN,,0.20,WeatherDisplay:10.37,2013-01-06 12:21:00,
2013-01-06 04:26:00,45.4,43.5,30.14,East,79,1.1,1.1,93,0.00,BKN,,0.20,WeatherDisplay:10.37,2013-01-06 12:26:00,
2013-01-06 04:31:00,45.4,43.5,30.14,ESE,122,1.1,1.1,93,0.00,BKN,,0.20,WeatherDisplay:10.37,2013-01-06 12:31:00,
2013-01-06 04:36:00,45.4,43.5,30.14,ESE,115,1.1,0.0,93,0.00,BKN,,0.20,WeatherDisplay:10.37,2013-01-06 12:36:00,
2013-01-06 04:41:00,45.4,43.5,30.14,ESE,113,1.1,0.0,93,0.00,BKN,,0.20,WeatherDisplay:10.37,2013-01-06 12:41:00,
2013-01-06 04:46:00,45.3,43.4,30.14,East,98,1.1,0.0,93,0.00,BKN,,0.20,WeatherDisplay:10.37,2013-01-06 12:46:00,
2013-01-06 04:51:00,45.3,43.4,30.13,East,101,1.1,0.0,93,0.00,BKN,,0.20,WeatherDisplay:10.37,2013-01-06 12:51:00,
2013-01-06 04:56:00,45.2,43.3,30.13,East,83,0.0,0.0,93,0.00,BKN,,0.20,WeatherDisplay:10.37,2013-01-06 12:56:00,
2013-01-06 05:01:00,45.1,42.9,30.13,South,183,1.1,1.1,92,0.00,BKN,,0.20,WeatherDisplay:10.37,2013-01-06 13:01:00,
2013-01-06 05:06:00,45.0,42.5,30.12,East,98,1.1,1.1,91,0.00,BKN,,0.20,WeatherDisplay:10.37,2013-01-06 13:06:00,
2013-01-06 05:11:00,44.8,42.0,30.12,East,99,0.0,0.0,90,0.00,BKN,,0.20,WeatherDisplay:10.37,2013-01-06 13:11:00,
2013-01-06 05:16:00,44.6,41.8,30.12,ESE,102,1.1,0.0,90,0.00,BKN,,0.20,WeatherDisplay:10.37,2013-01-06 13:16:00,
2013-01-06 05:21:00,44.4,41.7,30.12,ESE,102,0.0,0.0,90,0.00,BKN,,0.20,WeatherDisplay:10.37,2013-01-06 13:21:00,
2013-01-06 05:26:00,44.1,41.4,30.12,ESE,102,0.0,0.0,90,0.00,BKN,,0.20,WeatherDisplay:10.37,2013-01-06 13:26:00,
2013-01-06 05:31:00,43.9,41.2,30.12,ESE,102,1.1,0.0,90,0.00,FEW,,0.20,WeatherDisplay:10.37,2013-01-06 13:31:00,
2013-01-06 05:36:00,43.7,41.2,30.12,ESE,102,0.0,0.0,91,0.00,FEW,,0.20,WeatherDisplay:10.37,2013-01-06 13:36:00,
2013-01-06 05:41:00,43.8,41.3,30.13,ESE,108,0.0,0.1,91,0.00,FEW,,0.20,WeatherDisplay:10.37,2013-01-06 13:41:00,
2013-01-06 05:46:00,43.9,41.4,30.13,ESE,109,0.0,0.0,91,0.00,BKN,,0.20,WeatherDisplay:10.37,2013-01-06 13:46:00,
2013-01-06 05:51:00,44.0,41.5,30.13,ESE,117,1.1,1.1,91,0.00,BKN,,0.20,WeatherDisplay:10.37,2013-01-06 13:51:00,
2013-01-06 05:56:00,44.2,41.7,30.12,SE,135,0.0,0.0,91,0.00,BKN,,0.20,WeatherDisplay:10.37,2013-01-06 13:56:00,
2013-01-06 06:01:00,44.4,41.7,30.12,ESE,122,1.1,1.1,90,0.00,OVC,,0.20,WeatherDisplay:10.37,2013-01-06 14:01:00,
2013-01-06 06:06:00,44.6,41.6,30.12,ESE,123,1.1,1.1,89,0.00,OVC,,0.20,WeatherDisplay:10.37,2013-01-06 14:06:00,
2013-01-06 06:11:00,44.8,41.8,30.12,ESE,122,0.0,0.0,89,0.00,OVC,,0.20,WeatherDisplay:10.37,2013-01-06 14:11:00,
2013-01-06 06:16:00,44.8,41.8,30.12,ESE,122,0.0,0.0,89,0.00,OVC,,0.20,WeatherDisplay:10.37,2013-01-06 14:16:00,
2013-01-06 06:21:00,44.8,42.0,30.12,ESE,122,0.0,0.0,90,0.00,OVC,,0.20,WeatherDisplay:10.37,2013-01-06 14:21:00,
2013-01-06 06:26:00,44.8,42.0,30.12,ESE,122,0.0,0.0,90,0.00,OVC,,0.20,WeatherDisplay:10.37,2013-01-06 14:26:00,
2013-01-06 06:31:00,44.8,42.0,30.12,ESE,122,0.0,0.0,90,0.00,OVC,,0.20,WeatherDisplay:10.37,2013-01-06 14:31:00,
2013-01-06 06:36:00,44.8,41.8,30.12,ESE,122,0.0,0.0,89,0.00,OVC,,0.20,WeatherDisplay:10.37,2013-01-06 14:36:00,
2013-01-06 06:41:00,45.0,42.0,30.12,ESE,123,0.0,0.0,89,0.00,OVC,,0.20,WeatherDisplay:10.37,2013-01-06 14:41:00,
2013-01-06 06:46:00,45.1,42.1,30.12,ESE,122,0.0,0.0,89,0.00,OVC,,0.20,WeatherDisplay:10.37,2013-01-06 14:46:00,
2013-01-06 06:51:00,45.1,41.8,30.12,ESE,122,0.0,0.0,88,0.00,OVC,,0.20,WeatherDisplay:10.37,2013-01-06 14:51:00,
2013-01-06 06:56:00,45.1,41.8,30.12,ESE,122,0.0,0.0,88,0.00,OVC,,0.20,WeatherDisplay:10.37,2013-01-06 14:56:00,
2013-01-06 07:01:00,45.1,41.8,30.13,ESE,122,0.0,0.0,88,0.00,OVC,,0.20,WeatherDisplay:10.37,2013-01-06 15:01:00,
2013-01-06 07:06:00,45.1,41.8,30.13,ESE,123,0.0,0.0,88,0.00,OVC,,0.20,WeatherDisplay:10.37,2013-01-06 15:06:00,
2013-01-06 07:11:00,45.1,41.8,30.13,ESE,122,0.0,0.0,88,0.00,OVC,,0.20,WeatherDisplay:10.37,2013-01-06 15:11:00,
2013-01-06 07:16:00,45.2,41.9,30.13,ESE,122,0.0,0.0,88,0.00,OVC,,0.20,WeatherDisplay:10.37,2013-01-06 15:16:00,
2013-01-06 07:21:00,45.2,41.9,30.13,ESE,122,0.0,0.0,88,0.00,OVC,,0.20,WeatherDisplay:10.37,2013-01-06 15:21:00,
2013-01-06 07:26:00,45.4,42.1,30.14,SSW,207,2.3,2.3,88,0.01,RA,,0.21,WeatherDisplay:10.37,2013-01-06 15:26:00,
2013-01-06 07:31:00,45.3,42.5,30.14,SW,218,0.0,0.0,90,0.02,RA,,0.22,WeatherDisplay:10.37,2013-01-06 15:31:00,
2013-01-06 07:36:00,45.1,42.6,30.14,South,183,1.1,0.0,91,0.03,RA,,0.23,WeatherDisplay:10.37,2013-01-06 15:36:00,
2013-01-06 07:41:00,44.9,42.7,30.14,SE,135,1.1,1.1,92,0.04,RA,,0.24,WeatherDisplay:10.37,2013-01-06 15:41:00,
2013-01-06 07:46:00,44.8,42.6,30.14,SE,136,0.0,0.0,92,0.05,RA,,0.25,WeatherDisplay:10.37,2013-01-06 15:46:00,
2013-01-06 07:51:00,44.7,42.8,30.14,SE,137,0.0,0.0,93,0.06,RA,,0.26,WeatherDisplay:10.37,2013-01-06 15:51:00,
2013-01-06 07:56:00,44.7,42.8,30.14,SE,136,0.0,0.0,93,0.07,RA,,0.27,WeatherDisplay:10.37,2013-01-06 15:56:00,
2013-01-06 08:01:00,44.7,43.1,30.14,SE,135,0.0,0.0,94,0.08,RA,,0.28,WeatherDisplay:10.37,2013-01-06 16:01:00,
2013-01-06 08:06:00,44.7,43.1,30.14,SE,136,0.0,0.0,94,0.09,RA,,0.29,WeatherDisplay:10.37,2013-01-06 16:06:00,
2013-01-06 08:11:00,44.8,43.2,30.14,SE,135,0.0,0.0,94,0.09,RA,,0.29,WeatherDisplay:10.37,2013-01-06 16:11:00,
2013-01-06 08:16:00,44.9,43.3,30.14,ESE,105,1.0,1.0,94,0.09,OVC,,0.29,WeatherDisplay:10.37,2013-01-06 16:16:00,
2013-01-06 08:21:00,45.0,43.4,30.14,ESE,110,0.0,0.0,94,0.09,OVC,,0.29,WeatherDisplay:10.37,2013-01-06 16:21:00,
2013-01-06 08:26:00,45.1,43.8,30.15,ESE,108,0.0,0.0,95,0.08,OVC,,0.29,WeatherDisplay:10.37,2013-01-06 16:26:00,
2013-01-06 08:31:00,45.1,43.8,30.15,East,101,1.1,0.0,95,0.08,RA,,0.30,WeatherDisplay:10.37,2013-01-06 16:31:00,
2013-01-06 08:36:00,45.1,43.8,30.15,ESE,108,1.1,0.0,95,0.07,RA,,0.30,WeatherDisplay:10.37,2013-01-06 16:36:00,
2013-01-06 08:41:00,45.2,43.9,30.15,ESE,104,1.1,1.1,95,0.06,OVC,,0.30,WeatherDisplay:10.37,2013-01-06 16:41:00,
2013-01-06 08:46:00,45.3,44.0,30.15,ESE,104,1.1,0.0,95,0.05,OVC,,0.30,WeatherDisplay:10.37,2013-01-06 16:46:00,
2013-01-06 08:51:00,45.5,44.2,30.15,ESE,105,1.1,1.1,95,0.04,OVC,,0.30,WeatherDisplay:10.37,2013-01-06 16:51:00,
2013-01-06 08:56:00,45.6,44.3,30.14,ESE,108,1.1,0.0,95,0.03,OVC,,0.30,WeatherDisplay:10.37,2013-01-06 16:56:00,
2013-01-06 09:01:00,45.7,44.4,30.14,East,96,1.1,1.1,95,0.02,OVC,,0.30,WeatherDisplay:10.37,2013-01-06 17:01:00,
2013-01-06 09:06:00,45.8,44.4,30.14,ESE,105,1.1,0.0,95,0.01,OVC,,0.30,WeatherDisplay:10.37,2013-01-06 17:06:00,
2013-01-06 09:11:00,46.1,44.7,30.15,SSE,154,0.0,0.0,95,0.01,OVC,,0.30,WeatherDisplay:10.37,2013-01-06 17:11:00,
2013-01-06 09:16:00,46.2,44.8,30.15,SE,130,1.1,0.0,95,0.01,OVC,,0.30,WeatherDisplay:10.37,2013-01-06 17:16:00,
2013-01-06 09:21:00,46.3,44.9,30.15,East,84,1.1,1.1,95,0.01,OVC,,0.30,WeatherDisplay:10.37,2013-01-06 17:21:00,
2013-01-06 09:26:00,46.4,44.8,30.15,ESE,115,1.1,1.1,94,0.01,OVC,,0.30,WeatherDisplay:10.37,2013-01-06 17:26:00,
2013-01-06 09:31:00,46.6,45.0,30.15,South,177,1.1,0.0,94,0.00,OVC,,0.30,WeatherDisplay:10.37,2013-01-06 17:31:00,
2013-01-06 09:36:00,46.8,45.2,30.15,East,92,1.1,1.1,94,0.00,OVC,,0.30,WeatherDisplay:10.37,2013-01-06 17:36:00,
2013-01-06 09:41:00,46.9,45.3,30.15,SE,131,1.1,1.1,94,0.00,OVC,,0.30,WeatherDisplay:10.37,2013-01-06 17:41:00,
2013-01-06 09:46:00,47.2,45.3,30.15,East,83,1.1,1.1,93,0.00,OVC,,0.30,WeatherDisplay:10.37,2013-01-06 17:46:00,
2013-01-06 09:51:00,47.4,45.5,30.15,SE,142,1.1,1.1,93,0.00,OVC,,0.30,WeatherDisplay:10.37,2013-01-06 17:51:00,
2013-01-06 09:56:00,47.6,45.4,30.15,SSE,150,1.1,0.0,92,0.00,OVC,,0.30,WeatherDisplay:10.37,2013-01-06 17:56:00,
2013-01-06 10:01:00,47.7,45.2,30.16,NE,56,1.1,0.0,91,0.00,OVC,,0.30,WeatherDisplay:10.37,2013-01-06 18:01:00,
2013-01-06 10:06:00,47.7,44.9,30.16,ESE,120,2.3,2.3,90,0.00,OVC,,0.30,WeatherDisplay:10.37,2013-01-06 18:06:00,
2013-01-06 10:11:00,47.8,45.0,30.16,ESE,108,1.0,1.0,90,0.00,OVC,,0.30,WeatherDisplay:10.37,2013-01-06 18:11:00,
2013-01-06 10:16:00,47.8,45.0,30.16,SE,132,1.1,0.0,90,0.00,OVC,,0.30,WeatherDisplay:10.37,2013-01-06 18:16:00,
2013-01-06 10:21:00,47.9,45.1,30.15,ESE,122,1.1,0.0,90,0.00,OVC,,0.30,WeatherDisplay:10.37,2013-01-06 18:21:00,
2013-01-06 10:26:00,47.9,44.8,30.15,East,89,1.0,1.0,89,0.00,OVC,,0.30,WeatherDisplay:10.37,2013-01-06 18:26:00,
2013-01-06 10:31:00,48.0,44.6,30.15,NE,43,2.3,2.3,88,0.00,OVC,,0.30,WeatherDisplay:10.37,2013-01-06 18:31:00,
2013-01-06 10:36:00,48.1,44.4,30.15,SE,130,1.1,0.0,87,0.00,OVC,,0.30,WeatherDisplay:10.37,2013-01-06 18:36:00,
2013-01-06 10:41:00,48.3,44.6,30.14,SSE,153,2.3,2.3,87,0.00,OVC,,0.30,WeatherDisplay:10.37,2013-01-06 18:41:00,
2013-01-06 10:46:00,48.4,44.7,30.14,ESE,115,1.1,1.1,87,0.00,OVC,,0.30,WeatherDisplay:10.37,2013-01-06 18:46:00,
2013-01-06 10:51:00,48.4,44.7,30.14,West,263,3.5,0.0,87,0.00,OVC,,0.30,WeatherDisplay:10.37,2013-01-06 18:51:00,
2013-01-06 10:56:00,48.5,45.1,30.14,East,92,1.1,1.1,88,0.00,OVC,,0.30,WeatherDisplay:10.37,2013-01-06 18:56:00,
2013-01-06 11:01:00,48.7,45.3,30.14,SW,222,2.3,2.3,88,0.00,OVC,,0.30,WeatherDisplay:10.37,2013-01-06 19:01:00,
2013-01-06 11:06:00,48.8,45.1,30.13,ESE,104,3.5,3.5,87,0.00,OVC,,0.30,WeatherDisplay:10.37,2013-01-06 19:06:00,
2013-01-06 11:11:00,49.1,45.4,30.13,ESE,108,1.1,1.1,87,0.00,OVC,,0.30,WeatherDisplay:10.37,2013-01-06 19:11:00,
2013-01-06 11:16:00,49.5,45.8,30.13,ESE,115,2.3,2.3,87,0.00,OVC,,0.30,WeatherDisplay:10.37,2013-01-06 19:16:00,
2013-01-06 11:21:00,49.8,45.5,30.12,ENE,77,2.3,2.3,85,0.00,OVC,,0.30,WeatherDisplay:10.37,2013-01-06 19:21:00,
2013-01-06 11:26:00,50.1,46.1,30.12,ESE,122,1.1,0.0,86,0.00,OVC,,0.30,WeatherDisplay:10.37,2013-01-06 19:26:00,
2013-01-06 11:31:00,50.5,46.5,30.12,South,172,1.1,1.1,86,0.00,OVC,,0.30,WeatherDisplay:10.37,2013-01-06 19:31:00,
2013-01-06 11:36:00,50.8,46.5,30.11,ESE,120,2.3,2.3,85,0.00,OVC,,0.30,WeatherDisplay:10.37,2013-01-06 19:36:00,
2013-01-06 11:41:00,51.4,47.0,30.11,ESE,105,1.1,1.1,85,0.00,OVC,,0.30,WeatherDisplay:10.37,2013-01-06 19:41:00,
2013-01-06 11:46:00,52.1,47.1,30.11,SE,128,1.1,1.1,83,0.00,OVC,,0.30,WeatherDisplay:10.37,2013-01-06 19:46:00,
2013-01-06 11:52:00,52.5,46.8,30.10,East,99,1.1,1.1,81,0.00,OVC,,0.30,WeatherDisplay:10.37,2013-01-06 19:52:00,
2013-01-06 11:57:00,52.6,46.9,30.10,SE,128,1.1,1.1,81,0.00,OVC,,0.30,WeatherDisplay:10.37,2013-01-06 19:57:00,
2013-01-06 12:02:00,52.4,46.4,30.10,SSE,150,1.1,1.1,80,0.00,OVC,,0.30,WeatherDisplay:10.37,2013-01-06 20:02:00,
2013-01-06 12:08:00,52.2,46.2,30.10,East,100,1.1,1.1,80,0.00,OVC,,0.30,WeatherDisplay:10.37,2013-01-06 20:08:00,
2013-01-06 12:11:00,52.1,46.1,30.10,ESE,102,0.0,0.0,80,0.00,OVC,,0.30,WeatherDisplay:10.37,2013-01-06 20:11:00,
2013-01-06 12:13:00,52.2,46.2,30.10,ESE,102,0.0,0.0,80,0.00,OVC,,0.30,WeatherDisplay:10.37,2013-01-06 20:13:00,
2013-01-06 12:18:00,52.0,46.0,30.09,SE,126,1.1,0.0,80,0.00,OVC,,0.30,WeatherDisplay:10.37,2013-01-06 20:18:00,
2013-01-06 12:23:00,52.0,46.0,30.09,SW,228,0.0,0.0,80,0.00,OVC,,0.30,WeatherDisplay:10.37,2013-01-06 20:23:00,
2013-01-06 12:28:00,52.2,46.2,30.09,ESE,109,2.3,2.3,80,0.00,OVC,,0.30,WeatherDisplay:10.37,2013-01-06 20:28:00,
2013-01-06 12:33:00,52.3,46.0,30.09,East,88,1.1,0.0,79,0.00,OVC,,0.30,WeatherDisplay:10.37,2013-01-06 20:33:00,
2013-01-06 12:38:00,52.4,46.1,30.09,ESE,114,1.1,1.1,79,0.00,OVC,,0.30,WeatherDisplay:10.37,2013-01-06 20:38:00,
2013-01-06 12:43:00,52.4,45.7,30.08,ESE,120,0.0,0.0,78,0.00,OVC,,0.30,WeatherDisplay:10.37,2013-01-06 20:43:00,
2013-01-06 12:48:00,52.4,46.1,30.08,ESE,120,0.0,0.0,79,0.00,OVC,,0.30,WeatherDisplay:10.37,2013-01-06 20:48:00,
2013-01-06 12:53:00,52.3,45.6,30.08,ESE,122,0.0,0.0,78,0.00,OVC,,0.30,WeatherDisplay:10.37,2013-01-06 20:53:00,
2013-01-06 12:58:00,52.1,45.1,30.08,East,89,2.3,2.3,77,0.00,OVC,,0.30,WeatherDisplay:10.37,2013-01-06 20:58:00,
2013-01-06 13:00:00,52.0,45.4,30.08,East,98,1.1,1.1,78,0.00,OVC,,0.30,WeatherDisplay:10.37,2013-01-06 21:00:00,
2013-01-06 13:05:00,51.9,45.6,30.08,East,96,0.0,0.0,79,0.00,OVC,,0.30,WeatherDisplay:10.37,2013-01-06 21:05:00,
2013-01-06 13:10:00,51.9,45.6,30.08,ESE,115,1.1,1.1,79,0.00,OVC,,0.30,WeatherDisplay:10.37,2013-01-06 21:10:00,
2013-01-06 13:15:00,52.0,45.7,30.08,ESE,102,0.0,0.0,79,0.00,OVC,,0.30,WeatherDisplay:10.37,2013-01-06 21:15:00,
2013-01-06 13:20:00,52.1,45.8,30.08,SE,125,1.1,0.0,79,0.00,OVC,,0.30,WeatherDisplay:10.37,2013-01-06 21:20:00,
2013-01-06 13:25:00,52.2,45.9,30.08,SE,139,1.1,0.0,79,0.00,OVC,,0.30,WeatherDisplay:10.37,2013-01-06 21:25:00,
2013-01-06 13:30:00,52.0,45.4,30.08,SSE,150,0.0,0.0,78,0.00,OVC,,0.30,WeatherDisplay:10.37,2013-01-06 21:30:00,
2013-01-06 13:35:00,51.8,45.5,30.08,SW,223,0.0,0.0,79,0.00,OVC,,0.30,WeatherDisplay:10.37,2013-01-06 21:35:00,
2013-01-06 13:40:00,51.8,45.8,30.08,ESE,120,0.0,0.0,80,0.00,OVC,,0.30,WeatherDisplay:10.37,2013-01-06 21:40:00,
2013-01-06 13:45:00,51.6,46.0,30.08,SE,125,0.0,0.0,81,0.00,OVC,,0.30,WeatherDisplay:10.37,2013-01-06 21:45:00,
2013-01-06 13:50:00,51.6,46.0,30.08,SE,125,0.0,0.0,81,0.00,OVC,,0.30,WeatherDisplay:10.37,2013-01-06 21:50:00,
2013-01-06 13:55:00,51.5,45.9,30.08,SE,125,0.0,0.0,81,0.00,OVC,,0.30,WeatherDisplay:10.37,2013-01-06 21:55:00,
2013-01-06 14:00:00,51.4,46.1,30.08,SE,125,0.0,0.1,82,0.00,OVC,,0.30,WeatherDisplay:10.37,2013-01-06 22:00:00,
2013-01-06 14:05:00,51.3,46.3,30.07,ESE,107,1.1,1.1,83,0.00,OVC,,0.30,WeatherDisplay:10.37,2013-01-06 22:05:00,
2013-01-06 14:10:00,51.0,46.3,30.07,ESE,123,1.1,1.1,84,0.00,OVC,,0.30,WeatherDisplay:10.37,2013-01-06 22:10:00,
2013-01-06 14:15:00,50.8,46.1,30.08,ESE,120,0.0,0.0,84,0.01,RA,,0.31,WeatherDisplay:10.37,2013-01-06 22:15:00,
2013-01-06 14:20:00,50.8,46.5,30.08,SE,132,1.1,0.0,85,0.01,RA,,0.31,WeatherDisplay:10.37,2013-01-06 22:20:00,
2013-01-06 14:25:00,50.8,46.8,30.07,SE,133,0.0,0.0,86,0.01,OVC,,0.31,WeatherDisplay:10.37,2013-01-06 22:25:00,
2013-01-06 14:30:00,50.9,46.6,30.07,SE,132,0.0,0.0,85,0.01,OVC,,0.31,WeatherDisplay:10.37,2013-01-06 22:30:00,
2013-01-06 14:35:00,50.9,46.6,30.07,SE,132,1.1,0.0,85,0.01,OVC,,0.31,WeatherDisplay:10.37,2013-01-06 22:35:00,
2013-01-06 14:40:00,51.0,46.6,30.07,SE,132,0.0,0.0,85,0.01,OVC,,0.31,WeatherDisplay:10.37,2013-01-06 22:40:00,
2013-01-06 14:45:00,50.9,46.2,30.07,SE,132,0.0,0.0,84,0.01,OVC,,0.31,WeatherDisplay:10.37,2013-01-06 22:45:00,
2013-01-06 14:50:00,50.8,45.8,30.07,SE,132,1.1,0.0,83,0.01,OVC,,0.31,WeatherDisplay:10.37,2013-01-06 22:50:00,
2013-01-06 14:55:00,50.8,46.1,30.07,SE,128,1.1,0.0,84,0.01,OVC,,0.31,WeatherDisplay:10.37,2013-01-06 22:55:00,
2013-01-06 15:00:00,50.8,45.8,30.07,SE,129,0.0,0.0,83,0.01,OVC,,0.31,WeatherDisplay:10.37,2013-01-06 23:00:00,
2013-01-06 15:05:00,50.7,45.7,30.07,SE,128,0.0,0.0,83,0.01,BKN,,0.31,WeatherDisplay:10.37,2013-01-06 23:05:00,
2013-01-06 15:10:00,50.7,45.4,30.07,SE,128,0.0,0.0,82,0.01,BKN,,0.31,WeatherDisplay:10.37,2013-01-06 23:10:00,
2013-01-06 15:15:00,50.6,45.3,30.07,SE,129,0.0,0.0,82,0.00,BKN,,0.31,WeatherDisplay:10.37,2013-01-06 23:15:00,
2013-01-06 15:20:00,50.6,45.6,30.07,SE,129,0.0,0.0,83,0.00,BKN,,0.31,WeatherDisplay:10.37,2013-01-06 23:20:00,
2013-01-06 15:25:00,50.5,45.2,30.08,SE,128,0.0,0.0,82,0.00,BKN,,0.31,WeatherDisplay:10.37,2013-01-06 23:25:00,
2013-01-06 15:30:00,50.4,45.1,30.08,SE,128,0.0,0.0,82,0.00,BKN,,0.31,WeatherDisplay:10.37,2013-01-06 23:30:00,
2013-01-06 15:35:00,50.3,45.0,30.08,SE,129,0.0,0.0,82,0.00,BKN,,0.31,WeatherDisplay:10.37,2013-01-06 23:35:00,
2013-01-06 15:40:00,50.3,45.3,30.08,SE,128,0.0,0.0,83,0.00,BKN,,0.31,WeatherDisplay:10.37,2013-01-06 23:40:00,
2013-01-06 15:45:00,50.4,45.4,30.08,SE,128,0.0,0.0,83,0.00,BKN,,0.31,WeatherDisplay:10.37,2013-01-06 23:45:00,
2013-01-06 15:50:00,50.4,45.4,30.08,SE,128,0.0,0.0,83,0.00,OVC,,0.31,WeatherDisplay:10.37,2013-01-06 23:50:00,
2013-01-06 15:55:00,50.3,45.3,30.08,SE,129,0.0,0.0,83,0.00,OVC,,0.31,WeatherDisplay:10.37,2013-01-06 23:55:00,
2013-01-06 16:00:00,50.2,45.2,30.08,SE,143,0.0,0.0,83,0.00,OVC,,0.31,WeatherDisplay:10.37,2013-01-07 00:00:00,
2013-01-06 16:05:00,50.2,45.9,30.08,SE,142,0.0,0.0,85,0.00,OVC,,0.31,WeatherDisplay:10.37,2013-01-07 00:05:00,
2013-01-06 16:10:00,50.2,45.9,30.08,SE,143,0.0,0.0,85,0.00,OVC,,0.31,WeatherDisplay:10.37,2013-01-07 00:10:00,
2013-01-06 16:15:00,50.1,45.8,30.08,SE,143,0.0,0.0,85,0.00,OVC,,0.31,WeatherDisplay:10.37,2013-01-07 00:15:00,
2013-01-06 16:20:00,50.0,45.7,30.08,SE,142,1.1,0.0,85,0.00,OVC,,0.31,WeatherDisplay:10.37,2013-01-07 00:20:00,
2013-01-06 16:25:00,50.0,46.0,30.08,SE,142,0.0,0.0,86,0.00,OVC,,0.31,WeatherDisplay:10.37,2013-01-07 00:25:00,
2013-01-06 16:30:00,49.9,45.9,30.08,SE,142,1.1,1.1,86,0.00,OVC,,0.31,WeatherDisplay:10.37,2013-01-07 00:30:00,
2013-01-06 16:35:00,49.7,45.4,30.08,NNW,345,1.1,0.0,85,0.00,OVC,,0.31,WeatherDisplay:10.37,2013-01-07 00:35:00,
2013-01-06 16:40:00,49.7,45.7,30.08,NNW,343,0.0,0.4,86,0.00,OVC,,0.31,WeatherDisplay:10.37,2013-01-07 00:40:00,
2013-01-06 16:45:00,49.6,45.6,30.08,NNW,343,1.1,0.0,86,0.00,OVC,,0.31,WeatherDisplay:10.37,2013-01-07 00:45:00,
2013-01-06 16:50:00,49.5,45.8,30.08,NNW,346,0.0,0.0,87,0.00,OVC,,0.31,WeatherDisplay:10.37,2013-01-07 00:50:00,
2013-01-06 16:55:00,49.5,45.8,30.08,NNW,345,0.0,0.0,87,0.00,OVC,,0.31,WeatherDisplay:10.37,2013-01-07 00:55:00,
2013-01-06 17:00:00,49.3,45.6,30.08,NNW,346,0.0,0.0,87,0.00,OVC,,0.31,WeatherDisplay:10.37,2013-01-07 01:00:00,
2013-01-06 17:05:00,49.3,45.6,30.08,NNW,333,0.0,0.0,87,0.00,OVC,,0.31,WeatherDisplay:10.37,2013-01-07 01:05:00,
2013-01-06 17:10:00,49.2,45.5,30.08,NNW,333,0.0,0.0,87,0.00,OVC,,0.31,WeatherDisplay:10.37,2013-01-07 01:10:00,
2013-01-06 17:15:00,49.1,45.7,30.08,NNW,333,0.0,0.0,88,0.00,OVC,,0.31,WeatherDisplay:10.37,2013-01-07 01:15:00,
2013-01-06 17:20:00,48.9,45.2,30.08,NNW,333,0.0,0.0,87,0.00,OVC,,0.31,WeatherDisplay:10.37,2013-01-07 01:20:00,
2013-01-06 17:25:00,48.8,45.1,30.08,NNW,333,0.0,0.0,87,0.00,OVC,,0.31,WeatherDisplay:10.37,2013-01-07 01:25:00,
2013-01-06 17:30:00,48.8,45.1,30.08,NNW,333,0.0,0.0,87,0.00,OVC,,0.31,WeatherDisplay:10.37,2013-01-07 01:30:00,
2013-01-06 17:35:00,48.7,45.3,30.08,NNW,333,0.0,0.0,88,0.00,OVC,,0.31,WeatherDisplay:10.37,2013-01-07 01:35:00,
2013-01-06 17:40:00,48.6,45.2,30.08,NNW,333,0.0,0.0,88,0.00,OVC,,0.31,WeatherDisplay:10.37,2013-01-07 01:40:00,
2013-01-06 17:45:00,48.5,45.1,30.08,NNW,333,0.0,0.0,88,0.00,OVC,,0.31,WeatherDisplay:10.37,2013-01-07 01:45:00,
2013-01-06 17:50:00,48.4,45.3,30.08,NNW,333,0.0,0.0,89,0.00,OVC,,0.31,WeatherDisplay:10.37,2013-01-07 01:50:00,
2013-01-06 17:55:00,48.3,45.2,30.08,NNW,333,0.0,0.0,89,0.00,OVC,,0.31,WeatherDisplay:10.37,2013-01-07 01:55:00,
2013-01-06 18:00:00,48.2,45.1,30.08,NNW,333,0.0,0.0,89,0.00,OVC,,0.31,WeatherDisplay:10.37,2013-01-07 02:00:00,
2013-01-06 18:05:00,48.0,44.6,30.08,NNW,333,0.0,0.0,88,0.00,OVC,,0.31,WeatherDisplay:10.37,2013-01-07 02:05:00,
2013-01-06 18:10:00,47.9,44.8,30.08,NNW,333,0.0,0.0,89,0.00,OVC,,0.31,WeatherDisplay:10.37,2013-01-07 02:10:00,
2013-01-06 18:15:00,47.7,44.6,30.08,NNW,333,0.0,0.0,89,0.00,OVC,,0.31,WeatherDisplay:10.37,2013-01-07 02:15:00,
2013-01-06 18:20:00,47.6,44.8,30.08,NNW,333,0.0,0.0,90,0.00,OVC,,0.31,WeatherDisplay:10.37,2013-01-07 02:20:00,
2013-01-06 18:25:00,47.6,44.8,30.08,NNW,333,0.0,0.0,90,0.00,OVC,,0.31,WeatherDisplay:10.37,2013-01-07 02:25:00,
2013-01-06 18:30:00,47.6,44.8,30.09,NNW,333,0.0,0.0,90,0.00,OVC,,0.31,WeatherDisplay:10.37,2013-01-07 02:30:00,
2013-01-06 18:35:00,47.5,45.0,30.09,NNW,333,0.0,0.0,91,0.00,OVC,,0.31,WeatherDisplay:10.37,2013-01-07 02:35:00,
2013-01-06 18:40:00,47.5,45.0,30.09,NNW,333,1.0,0.0,91,0.00,OVC,,0.31,WeatherDisplay:10.37,2013-01-07 02:40:00,
2013-01-06 18:45:00,47.5,45.0,30.09,NNW,333,0.0,0.0,91,0.00,OVC,,0.31,WeatherDisplay:10.37,2013-01-07 02:45:00,
2013-01-06 18:50:00,47.5,45.0,30.09,NNW,333,0.0,0.0,91,0.00,OVC,,0.31,WeatherDisplay:10.37,2013-01-07 02:50:00,
2013-01-06 18:55:00,47.5,45.0,30.10,NNW,333,0.0,0.0,91,0.00,OVC,,0.31,WeatherDisplay:10.37,2013-01-07 02:55:00,
2013-01-06 19:00:00,47.5,44.7,30.10,NNW,333,1.1,0.0,90,0.00,OVC,,0.31,WeatherDisplay:10.37,2013-01-07 03:00:00,
2013-01-06 19:05:00,47.6,44.8,30.10,NW,316,0.0,0.0,90,0.00,OVC,,0.31,WeatherDisplay:10.37,2013-01-07 03:05:00,
2013-01-06 19:10:00,47.5,44.7,30.10,NW,317,0.0,0.0,90,0.00,OVC,,0.31,WeatherDisplay:10.37,2013-01-07 03:10:00,
2013-01-06 19:15:00,47.5,44.7,30.10,NW,317,0.0,0.0,90,0.00,OVC,,0.31,WeatherDisplay:10.37,2013-01-07 03:15:00,
2013-01-06 19:20:00,47.3,44.5,30.09,NW,318,0.0,0.0,90,0.00,OVC,,0.31,WeatherDisplay:10.37,2013-01-07 03:20:00,
2013-01-06 19:21:00,47.3,44.5,30.09,NW,317,0.0,0.0,90,0.00,OVC,,0.31,WeatherDisplay:10.37,2013-01-07 03:21:00,
2013-01-06 19:26:00,47.0,44.2,30.09,NW,317,1.1,0.0,90,0.00,OVC,,0.31,WeatherDisplay:10.37,2013-01-07 03:26:00,
2013-01-06 19:31:00,46.7,43.9,30.09,NW,316,0.0,0.0,90,0.00,OVC,,0.31,WeatherDisplay:10.37,2013-01-07 03:31:00,
2013-01-06 19:36:00,46.4,43.9,30.09,NW,309,0.0,0.0,91,0.00,OVC,,0.31,WeatherDisplay:10.37,2013-01-07 03:36:00,
2013-01-06 19:41:00,46.1,43.6,30.09,NW,309,0.0,0.0,91,0.00,OVC,,0.31,WeatherDisplay:10.37,2013-01-07 03:41:00,
2013-01-06 19:46:00,45.9,43.7,30.09,NW,307,0.0,0.0,92,0.00,OVC,,0.31,WeatherDisplay:10.37,2013-01-07 03:46:00,
2013-01-06 19:51:00,45.8,43.6,30.09,NW,313,0.0,0.0,92,0.00,OVC,,0.31,WeatherDisplay:10.37,2013-01-07 03:51:00,
2013-01-06 19:56:00,45.6,43.4,30.09,NW,321,1.1,1.1,92,0.00,OVC,,0.31,WeatherDisplay:10.37,2013-01-07 03:56:00,
2013-01-06 20:01:00,45.5,43.3,30.09,West,275,0.0,0.1,92,0.00,OVC,,0.31,WeatherDisplay:10.37,2013-01-07 04:01:00,
2013-01-06 20:06:00,45.4,43.2,30.10,West,275,0.0,0.0,92,0.00,OVC,,0.31,WeatherDisplay:10.37,2013-01-07 04:06:00,
2013-01-06 20:11:00,45.3,43.4,30.11,NW,322,1.1,0.0,93,0.00,OVC,,0.31,WeatherDisplay:10.37,2013-01-07 04:11:00,
2013-01-06 20:16:00,45.3,43.4,30.11,NW,322,0.0,0.0,93,0.00,OVC,,0.31,WeatherDisplay:10.37,2013-01-07 04:16:00,
2013-01-06 20:21:00,45.3,43.4,30.11,NW,305,1.1,1.1,93,0.00,OVC,,0.31,WeatherDisplay:10.37,2013-01-07 04:21:00,
2013-01-06 20:26:00,45.3,43.4,30.12,North,350,1.1,1.1,93,0.00,OVC,,0.31,WeatherDisplay:10.37,2013-01-07 04:26:00,
2013-01-06 20:31:00,45.3,43.4,30.12,NW,322,3.5,3.5,93,0.00,OVC,,0.31,WeatherDisplay:10.37,2013-01-07 04:31:00,
2013-01-06 20:36:00,45.3,43.4,30.12,North,359,1.1,1.1,93,0.00,OVC,,0.31,WeatherDisplay:10.37,2013-01-07 04:36:00,
2013-01-06 20:41:00,45.2,43.3,30.12,West,279,1.1,0.0,93,0.00,OVC,,0.31,WeatherDisplay:10.37,2013-01-07 04:41:00,
2013-01-06 20:46:00,45.2,43.3,30.12,NW,309,2.3,2.3,93,0.00,OVC,,0.31,WeatherDisplay:10.37,2013-01-07 04:46:00,
2013-01-06 20:51:00,45.2,43.6,30.12,NW,324,1.1,1.1,94,0.00,OVC,,0.31,WeatherDisplay:10.37,2013-01-07 04:51:00,
2013-01-06 20:56:00,45.1,43.5,30.12,NNW,339,1.1,1.1,94,0.00,OVC,,0.31,WeatherDisplay:10.37,2013-01-07 04:56:00,
2013-01-06 21:00:00,45.0,43.4,30.12,NW,308,2.3,0.0,94,0.00,OVC,,0.31,WeatherDisplay:10.37,2013-01-07 05:00:00,
2013-01-06 21:05:00,44.9,43.3,30.11,SSE,158,2.3,0.0,94,0.00,OVC,,0.31,WeatherDisplay:10.37,2013-01-07 05:05:00,
2013-01-06 21:10:00,44.9,43.6,30.13,NNW,336,1.1,1.1,95,0.00,OVC,,0.31,WeatherDisplay:10.37,2013-01-07 05:10:00,
2013-01-06 21:15:00,44.9,43.6,30.13,NW,325,1.1,1.1,95,0.00,OVC,,0.31,WeatherDisplay:10.37,2013-01-07 05:15:00,
2013-01-06 21:20:00,44.9,43.6,30.13,North,349,1.1,1.1,95,0.00,OVC,,0.31,WeatherDisplay:10.37,2013-01-07 05:20:00,
2013-01-06 21:25:00,44.9,43.6,30.13,NW,314,1.1,0.0,95,0.00,OVC,,0.31,WeatherDisplay:10.37,2013-01-07 05:25:00,
2013-01-06 21:30:00,44.9,43.6,30.13,NW,316,2.3,2.3,95,0.00,OVC,,0.31,WeatherDisplay:10.37,2013-01-07 05:30:00,
2013-01-06 21:35:00,44.9,43.6,30.13,NW,322,1.1,1.1,95,0.00,OVC,,0.31,WeatherDisplay:10.37,2013-01-07 05:35:00,
2013-01-06 21:40:00,44.9,43.6,30.14,North,4,1.1,1.1,95,0.00,OVC,,0.31,WeatherDisplay:10.37,2013-01-07 05:40:00,
2013-01-06 21:45:00,44.9,43.6,30.13,North,352,1.1,1.1,95,0.00,OVC,,0.31,WeatherDisplay:10.37,2013-01-07 05:45:00,
2013-01-06 21:50:00,44.9,43.6,30.14,NNW,330,1.1,1.1,95,0.00,OVC,,0.31,WeatherDisplay:10.37,2013-01-07 05:50:00,
2013-01-06 21:55:00,44.9,43.6,30.14,North,354,1.1,1.1,95,0.00,OVC,,0.31,WeatherDisplay:10.37,2013-01-07 05:55:00,
2013-01-06 22:00:00,44.9,43.6,30.14,NW,315,3.5,3.5,95,0.00,OVC,,0.31,WeatherDisplay:10.37,2013-01-07 06:00:00,
2013-01-06 22:05:00,44.9,43.6,30.14,NNW,334,1.1,1.1,95,0.00,OVC,,0.31,WeatherDisplay:10.37,2013-01-07 06:05:00,
2013-01-06 22:10:00,45.0,43.7,30.14,North,359,1.1,1.1,95,0.00,OVC,,0.31,WeatherDisplay:10.37,2013-01-07 06:10:00,
2013-01-06 22:15:00,45.0,43.7,30.15,WNW,290,2.3,2.3,95,0.00,OVC,,0.31,WeatherDisplay:10.37,2013-01-07 06:15:00,
2013-01-06 22:20:00,45.0,43.7,30.15,NW,308,2.3,2.3,95,0.00,OVC,,0.31,WeatherDisplay:10.37,2013-01-07 06:20:00,
2013-01-06 22:25:00,45.0,43.7,30.15,NNW,333,3.5,3.5,95,0.00,OVC,,0.31,WeatherDisplay:10.37,2013-01-07 06:25:00,
2013-01-06 22:30:00,45.0,43.7,30.15,NW,315,4.0,4.0,95,0.00,OVC,,0.31,WeatherDisplay:10.37,2013-01-07 06:30:00,
2013-01-06 22:35:00,45.1,43.8,30.15,NW,315,3.5,3.5,95,0.00,OVC,,0.31,WeatherDisplay:10.37,2013-01-07 06:35:00,
2013-01-06 22:40:00,45.1,43.8,30.15,NW,319,4.0,4.0,95,0.00,OVC,,0.31,WeatherDisplay:10.37,2013-01-07 06:40:00,
2013-01-06 22:45:00,45.0,43.4,30.15,NNW,336,3.5,3.5,94,0.00,OVC,,0.31,WeatherDisplay:10.37,2013-01-07 06:45:00,
2013-01-06 22:50:00,45.0,43.4,30.15,NNW,342,2.3,2.3,94,0.00,OVC,,0.31,WeatherDisplay:10.37,2013-01-07 06:50:00,
2013-01-06 22:55:00,44.9,43.3,30.15,NNW,328,2.3,2.3,94,0.00,OVC,,0.31,WeatherDisplay:10.37,2013-01-07 06:55:00,
2013-01-06 23:00:00,44.9,43.3,30.15,North,356,0.0,0.0,94,0.00,OVC,,0.31,WeatherDisplay:10.37,2013-01-07 07:00:00,
2013-01-06 23:05:00,44.9,43.6,30.15,North,356,0.0,0.2,95,0.00,OVC,,0.31,WeatherDisplay:10.37,2013-01-07 07:05:00,
2013-01-06 23:10:00,44.8,43.5,30.15,WNW,294,0.0,0.0,95,0.00,OVC,,0.31,WeatherDisplay:10.37,2013-01-07 07:10:00,
2013-01-06 23:15:00,44.8,43.5,30.15,North,11,1.1,1.1,95,0.00,OVC,,0.31,WeatherDisplay:10.37,2013-01-07 07:15:00,
2013-01-06 23:20:00,44.8,43.5,30.15,NNW,347,2.3,2.3,95,0.00,OVC,,0.31,WeatherDisplay:10.37,2013-01-07 07:20:00,
2013-01-06 23:25:00,44.8,43.5,30.15,West,280,2.3,2.3,95,0.00,OVC,,0.31,WeatherDisplay:10.37,2013-01-07 07:25:00,
2013-01-06 23:30:00,44.7,43.4,30.15,West,281,3.5,3.5,95,0.00,OVC,,0.31,WeatherDisplay:10.37,2013-01-07 07:30:00,
2013-01-06 23:35:00,44.7,43.1,30.14,North,356,3.5,3.5,94,0.00,OVC,,0.31,WeatherDisplay:10.37,2013-01-07 07:35:00,
2013-01-06 23:40:00,44.6,43.0,30.14,NNW,330,3.5,3.5,94,0.00,OVC,,0.31,WeatherDisplay:10.37,2013-01-07 07:40:00,
2013-01-06 23:45:00,44.6,43.3,30.14,NW,309,1.1,1.1,95,0.00,OVC,,0.31,WeatherDisplay:10.37,2013-01-07 07:45:00,
2013-01-06 23:50:00,44.5,43.2,30.14,NNW,330,1.1,0.0,95,0.00,OVC,,0.31,WeatherDisplay:10.37,2013-01-07 07:50:00,
2013-01-06 23:55:00,44.5,43.2,30.14,NNW,333,0.0,0.0,95,0.00,OVC,,0.31,WeatherDisplay:10.37,2013-01-07 07:55:00,